When you browse on this site, cookies collect data to enhance your experience and personalize the content and advertising you see.
Visit our Privacy Policy to learn more. By continuing to use the site, you agree to this use of cookies and data.
  • In United Kingdom
  • List of Countries
  • For 7 days
  • Water Temperature
  • Satellite Maps
  • Weather Map
  • Weather Widgets
  • user-avatar
    Login

    Hourly Weather Holguin

    Today, 21 January, Monday

    Time Temperature Precipitation Wind Pressure Humidity
    00:00 +24°C° 0 mm 2 mps 750 mmHg 84%
    01:00 +23°C° 0 mm 1 mps 750 mmHg 88%
    02:00 +23°C° 0 mm 1 mps 750 mmHg 90%
    03:00 +23°C° 0 mm 1 mps 750 mmHg 91%
    04:00 +22°C° 0 mm 1 mps 750 mmHg 93%
    05:00 +22°C° 0 mm 1 mps 750 mmHg 93%
    06:00 +22°C° 0 mm 1 mps 751 mmHg 94%
    07:00 +22°C° 0 mm 1 mps 751 mmHg 94%
    08:00 +24°C° 0.2 mm 3 mps 751 mmHg 88%
    09:00 +25°C° 0.2 mm 4 mps 752 mmHg 82%
    10:00 +26°C° 0.2 mm 5 mps 752 mmHg 77%
    11:00 +26°C° 0.2 mm 5 mps 752 mmHg 76%
    12:00 +26°C° 0.2 mm 5 mps 752 mmHg 75%
    13:00 +26°C° 0.2 mm 6 mps 752 mmHg 74%
    14:00 +26°C° 0 mm 6 mps 752 mmHg 74%
    15:00 +26°C° 0 mm 6 mps 751 mmHg 73%
    16:00 +26°C° 0 mm 6 mps 751 mmHg 72%
    17:00 +25°C° 0 mm 5 mps 751 mmHg 75%
    18:00 +25°C° 0 mm 5 mps 752 mmHg 78%
    19:00 +23°C° 0 mm 4 mps 752 mmHg 81%
    20:00 +23°C° 0 mm 5 mps 752 mmHg 81%
    21:00 +23°C° 0 mm 5 mps 753 mmHg 81%
    22:00 +23°C° 0 mm 5 mps 753 mmHg 82%
    23:00 +23°C° 0 mm 5 mps 753 mmHg 82%

    Tomorrow, 22 January, Tuesday

    Time Temperature Precipitation Wind Pressure Humidity
    00:00 +23°C° 0 mm 5 mps 753 mmHg 82%
    01:00 +22°C° 0 mm 5 mps 753 mmHg 83%
    02:00 +22°C° 0 mm 5 mps 752 mmHg 83%
    03:00 +22°C° 0 mm 5 mps 752 mmHg 83%
    04:00 +22°C° 0 mm 5 mps 752 mmHg 84%
    05:00 +22°C° 0 mm 6 mps 752 mmHg 82%
    06:00 +22°C° 0 mm 6 mps 752 mmHg 80%
    07:00 +22°C° 0 mm 6 mps 753 mmHg 78%
    08:00 +24°C° 0 mm 7 mps 753 mmHg 73%
    09:00 +26°C° 0 mm 8 mps 754 mmHg 69%
    10:00 +27°C° 0 mm 8 mps 754 mmHg 64%
    11:00 +27°C° 0 mm 8 mps 754 mmHg 66%
    12:00 +27°C° 0 mm 8 mps 753 mmHg 69%
    13:00 +26°C° 0 mm 8 mps 753 mmHg 71%
    14:00 +26°C° 0.1 mm 8 mps 752 mmHg 72%
    15:00 +26°C° 0.1 mm 8 mps 752 mmHg 72%
    16:00 +26°C° 0.1 mm 8 mps 752 mmHg 73%
    17:00 +26°C° 0.1 mm 8 mps 752 mmHg 76%
    18:00 +24°C° 0.1 mm 7 mps 752 mmHg 78%
    19:00 +24°C° 0.1 mm 6 mps 752 mmHg 81%
    20:00 +24°C° 0 mm 6 mps 752 mmHg 81%
    21:00 +24°C° 0 mm 6 mps 753 mmHg 81%
    22:00 +24°C° 0 mm 6 mps 753 mmHg 82%
    23:00 +23°C° 0 mm 6 mps 752 mmHg 82%

    Day after tomorrow, 23 January, Wednesday

    Time Temperature Precipitation Wind Pressure Humidity
    00:00 +23°C° 0 mm 5 mps 752 mmHg 83%
    01:00 +23°C° 0 mm 5 mps 752 mmHg 83%
    02:00 +23°C° 0 mm 5 mps 751 mmHg 83%
    03:00 +23°C° 0 mm 5 mps 751 mmHg 83%
    04:00 +23°C° 0 mm 4 mps 751 mmHg 83%
    05:00 +22°C° 0 mm 4 mps 751 mmHg 82%
    06:00 +22°C° 0 mm 4 mps 752 mmHg 81%
    07:00 +22°C° 0 mm 4 mps 752 mmHg 81%
    08:00 +24°C° 0 mm 6 mps 752 mmHg 72%
    09:00 +27°C° 0 mm 7 mps 753 mmHg 64%
    10:00 +29°C° 0 mm 8 mps 753 mmHg 56%
    11:00 +31°C° 0 mm 8 mps 753 mmHg 52%
    12:00 +32°C° 0 mm 8 mps 752 mmHg 49%
    13:00 +33°C° 0 mm 7 mps 751 mmHg 45%
    14:00 +33°C° 0 mm 7 mps 751 mmHg 46%
    15:00 +32°C° 0 mm 7 mps 750 mmHg 48%
    16:00 +32°C° 0 mm 7 mps 750 mmHg 49%
    17:00 +29°C° 0 mm 7 mps 750 mmHg 55%
    18:00 +28°C° 0 mm 7 mps 750 mmHg 61%
    19:00 +26°C° 0 mm 6 mps 751 mmHg 66%
    20:00 +25°C° 0 mm 5 mps 751 mmHg 70%
    21:00 +25°C° 0 mm 5 mps 751 mmHg 74%
    22:00 +23°C° 0 mm 4 mps 751 mmHg 78%
    23:00 +24°C° 0 mm 3 mps 750 mmHg 82%

    24 January, Thursday

    Time Temperature Precipitation Wind Pressure Humidity
    00:00 +22°C° 0 mm 3 mps 750 mmHg 85%
    01:00 +22°C° 0 mm 3 mps 750 mmHg 88%
    02:00 +23°C° 0 mm 2 mps 749 mmHg 89%
    03:00 +21°C° 0 mm 2 mps 749 mmHg 90%
    04:00 +21°C° 0 mm 2 mps 749 mmHg 92%
    05:00 +21°C° 0 mm 2 mps 749 mmHg 92%
    06:00 +21°C° 0 mm 2 mps 749 mmHg 92%
    07:00 +21°C° 0 mm 2 mps 750 mmHg 92%
    08:00 +24°C° 0 mm 2 mps 750 mmHg 80%
    09:00 +27°C° 0 mm 2 mps 751 mmHg 67%
    10:00 +29°C° 0 mm 2 mps 751 mmHg 55%
    11:00 +30°C° 0 mm 2 mps 751 mmHg 48%
    12:00 +32°C° 0 mm 2 mps 750 mmHg 42%
    13:00 +34°C° 0 mm 2 mps 750 mmHg 36%
    14:00 +34°C° 0 mm 2 mps 750 mmHg 38%
    15:00 +34°C° 0 mm 2 mps 749 mmHg 40%
    16:00 +32°C° 0 mm 2 mps 749 mmHg 41%
    17:00 +30°C° 0 mm 2 mps 749 mmHg 50%
    18:00 +29°C° 0 mm 3 mps 749 mmHg 59%
    19:00 +27°C° 0 mm 3 mps 750 mmHg 68%
    20:00 +26°C° 0 mm 3 mps 750 mmHg 72%
    21:00 +25°C° 0 mm 2 mps 750 mmHg 75%
    22:00 +25°C° 0 mm 2 mps 750 mmHg 79%
    23:00 +24°C° 0 mm 2 mps 750 mmHg 78%

    25 January, Friday

    Time Temperature Precipitation Wind Pressure Humidity
    00:00 +24°C° 0 mm 2 mps 750 mmHg 78%
    01:00 +24°C° 0 mm 2 mps 749 mmHg 77%
    02:00 +23°C° 0 mm 1 mps 749 mmHg 77%
    03:00 +23°C° 0 mm 1 mps 749 mmHg 76%
    04:00 +23°C° 0 mm 1 mps 749 mmHg 76%
    05:00 +23°C° 0 mm 1 mps 749 mmHg 76%
    06:00 +22°C° 0 mm 1 mps 749 mmHg 76%
    07:00 +20°C° 0 mm 0 mps 750 mmHg 76%
    08:00 +25°C° 0 mm 1 mps 750 mmHg 67%
    09:00 +27°C° 0 mm 1 mps 751 mmHg 59%
    10:00 +29°C° 0 mm 1 mps 751 mmHg 50%
    11:00 +31°C° 0 mm 1 mps 751 mmHg 46%
    12:00 +32°C° 0 mm 1 mps 750 mmHg 42%
    13:00 +33°C° 0 mm 1 mps 750 mmHg 38%
    14:00 +34°C° 0 mm 2 mps 749 mmHg 40%
    15:00 +32°C° 0 mm 2 mps 749 mmHg 42%
    16:00 +32°C° 0 mm 2 mps 748 mmHg 44%
    17:00 +30°C° 0 mm 2 mps 749 mmHg 51%
    18:00 +28°C° 0 mm 2 mps 749 mmHg 59%
    19:00 +27°C° 0 mm 2 mps 749 mmHg 66%
    20:00 +26°C° 0 mm 1 mps 750 mmHg 70%
    21:00 +25°C° 0 mm 1 mps 750 mmHg 74%
    22:00 +23°C° 0 mm 0 mps 750 mmHg 78%
    23:00 +22°C° 0 mm 0 mps 750 mmHg 79%

    26 January, Saturday

    Time Temperature Precipitation Wind Pressure Humidity
    00:00 +22°C° 0 mm 0 mps 750 mmHg 80%
    01:00 +22°C° 0 mm 0 mps 750 mmHg 81%
    02:00 +23°C° 0 mm 1 mps 749 mmHg 82%
    03:00 +23°C° 0 mm 1 mps 749 mmHg 84%
    04:00 +23°C° 0 mm 1 mps 749 mmHg 85%
    05:00 +23°C° 0 mm 1 mps 749 mmHg 86%
    06:00 +23°C° 0 mm 2 mps 750 mmHg 88%
    07:00 +23°C° 0 mm 2 mps 750 mmHg 89%
    08:00 +25°C° 0.1 mm 2 mps 750 mmHg 80%
    09:00 +26°C° 0.1 mm 3 mps 751 mmHg 70%
    10:00 +28°C° 0.1 mm 4 mps 751 mmHg 61%
    11:00 +29°C° 0.1 mm 4 mps 750 mmHg 58%
    12:00 +30°C° 0.1 mm 4 mps 750 mmHg 55%
    13:00 +30°C° 0.1 mm 4 mps 749 mmHg 52%
    14:00 +30°C° 0.1 mm 5 mps 749 mmHg 55%
    15:00 +29°C° 0.1 mm 5 mps 748 mmHg 58%
    16:00 +28°C° 0.1 mm 6 mps 748 mmHg 61%
    17:00 +27°C° 0 mm 5 mps 748 mmHg 68%
    18:00 +26°C° 0 mm 5 mps 749 mmHg 74%
    19:00 +25°C° 0 mm 4 mps 749 mmHg 80%
    20:00 +23°C° 0 mm 4 mps 749 mmHg 82%
    21:00 +24°C° 0 mm 3 mps 749 mmHg 84%
    22:00 +24°C° 0 mm 3 mps 749 mmHg 85%
    23:00 +22°C° 0 mm 3 mps 749 mmHg 86%
    Show more